Regional Weather Roundup
Issued by NWS

Home | Current Version | Previous Version | Graphics & Text | Print | Product List | Glossary On
Versions: 1 2 3 4 5 6 7 8 9 10 11 12 13 14 15 16 17 18 19 20 21 22 23 24 25 26 27 28 29 30 31 32 33 34 35 36 37 38 39 40 41 42 43 44 45 46 47 48 49 50
000
ASUS43 KMKX 241411
RWRWI

WISCONSIN REGIONAL WEATHER ROUNDUP
NATIONAL WEATHER SERVICE MILWAUKEE/SULLIVAN WI
900 AM CDT THU MAY 24 2018

NOTE: "FAIR" INDICATES FEW OR NO CLOUDS BELOW 12,000 FEET WITH NO
SIGNIFICANT WEATHER AND/OR OBSTRUCTIONS TO VISIBILITY.

WIZ001-002-006>008-014>016-023>028-241500-
NORTHWEST WISCONSIN

CITY           SKY/WX    TMP DP  RH WIND       PRES   REMARKS
SUPERIOR ARPT  LGT RAIN  55  55 100 CALM      30.07F
ASHLAND        LGT RAIN  66  65  96 S6        30.09F
HAYWARD        HVY RAIN  65  64  97 E3        30.10F FOG
SIREN          PTSUNNY   68  64  87 E6        30.08F
CUMBERLAND     PTSUNNY   68  61  77 NE6       30.10S
RICE LAKE      CLOUDY    70  62  75 N6        30.12R
CHETEK         FAIR      73  63  71 S10G17    30.09S
LADYSMITH      FAIR      70  61  72 S5        30.13S
EAU CLAIRE     FAIR      75  63  66 S7        30.08F
MENOMONIE      FAIR      76  63  64 S12       30.08F
NEW RICHMOND   FAIR      75  62  62 SW9G17    30.06F
OSCEOLA        PTSUNNY   74  63  69 SW5       30.09S
$$

WIZ003>005-009-010-017-018-241500-
NORTH CENTRAL WISCONSIN

CITY           SKY/WX    TMP DP  RH WIND       PRES   REMARKS
MANITOWISH WTR PTSUNNY   63  63 100 CALM      30.14F
ARBOR VITAE    FAIR      65  62  87 CALM      30.15F
WOODRUFF       FAIR      65  62  87 CALM      30.15F
RHINELANDER    CLOUDY    72  61  68 SW7       30.15F
EAGLE RIVER    LGT RAIN  63  62  97 CALM      30.16S
LAND O LAKES   LGT RAIN  63  62  96 CALM      30.18F
PHILLIPS       PTSUNNY   67  62  85 NE3       30.13F
TOMAHAWK       FAIR      69  60  73 S3        30.15F
MEDFORD        FAIR      72  60  65 S8        30.13F
MERRILL        FAIR      72  61  69 S8        30.15F
$$

WIZ029-030-035-036-043>047-241500-
CENTRAL WISCONSIN

CITY           SKY/WX    TMP DP  RH WIND       PRES   REMARKS
WAUSAU         FAIR      72  60  66 S10       30.13F
MOSINEE        PTSUNNY   70  63  78 S8        30.17S
MARSHFIELD     FAIR      71  61  70 S8        30.13F
STEVENS POINT  FAIR      72  58  62 S8        30.16F
WAUPACA        FAIR      75  59  58 S7        30.16F
WAUTOMA        FAIR      73  58  59 S6        30.16F
WISC RAPIDS    FAIR      73  59  61 S9        30.16S
CAMP DOUGLAS   MOSUNNY   72  61  68 S10       30.13F
$$

WIZ011>013-019>022-031-037>040-048>050-241500-
NORTHEAST WISCONSIN

CITY           SKY/WX    TMP DP  RH WIND       PRES   REMARKS
ANTIGO         FAIR      72  60  65 SW9       30.16F
SHAWANO        PTSUNNY   73  60  63 S5        30.16F
OCONTO         FAIR      71  58  62 SW5       30.15F
STURGEON BAY   FAIR      74  54  49 S7        30.17F
GREEN BAY      PTSUNNY   72  53  51 SW8       30.17S
MANITOWOC      FAIR      73  49  42 S7        30.19F
APPLETON       MOSUNNY   72  48  43 SW7       30.17S
CLINTONVILLE   FAIR      74  57  55 S7        30.16S
OSHKOSH        FAIR      71  56  58 S9        30.17F
$$

WIZ032>034-041-042-053>061-241500-
SOUTHWEST WISCONSIN

CITY           SKY/WX    TMP DP  RH WIND       PRES   REMARKS
LA CROSSE      FAIR      74  59  59 S14       30.11S
SPARTA         FAIR      74  59  59 S10       30.13F
VIROQUA        FAIR      73  60  65 S9        30.15S
BOSCOBEL       FAIR      74  63  68 CALM      30.13F
PRAIRIE DU CHI FAIR      72  60  66 SW3       30.13F
PLATTEVILLE    FAIR      72  62  71 SE8       30.17S
$$

WIZ056-057-062-063-064-067-068-241500-
SOUTH CENTRAL WISCONSIN

CITY           SKY/WX    TMP DP  RH WIND       PRES   REMARKS
REEDSBURG      FAIR      72  57  59 S5        30.15F
BARABOO/DELLS  FAIR      73  53  48 S8        30.16F
LONE ROCK      FAIR      72  61  68 E6        30.15F
MINERAL POINT  FAIR      72  61  68 SE9       30.17F
MADISON        FAIR      71  56  58 S8        30.17F
MIDDLETON      FAIR      73  55  54 S8        30.18F
WATERTOWN      FAIR      71  58  64 S7        30.18F
MONROE         FAIR      72  52  49 S13       30.17F
JANESVILLE     PTSUNNY   73  55  53 S9        30.18F
$$

WIZ051-052-058>065-066-070>072-241500-
SOUTHEAST WISCONSIN

CITY           SKY/WX    TMP DP  RH WIND       PRES   REMARKS
MILWAUKEE      FAIR      73  55  53 S8        30.20F
WAUKESHA       SUNNY     70  54  56 S7        30.21F
MILWAUKEE/TIMM SUNNY     72  52  49 S8        30.21F
RACINE         FAIR      71  55  56 S6        30.22S
BURLINGTON     FAIR      73  58  59 CALM      30.19F
KENOSHA        FAIR      72  57  59 S6        30.20F
FOND DU LAC    FAIR      72  54  53 S10       30.18S
SHEBOYGAN      FAIR      72  52  49 S6        30.19S
WEST BEND      FAIR      72  55  56 S5        30.20S
JUNEAU         FAIR      69  55  59 S7        30.19F
$$

LSZ147-162-241500-
LAKE SUPERIOR

STATION/POSITION TIME  TEMP    WIND        PRES    WAVE
                       AIR SEA DIR/SP/G            HT/PER
                 (UTC) (F)     (DEG/KT/KT) (MB)    (FT/S)
W MID LAKE BUOY  1350   47 36  240/ 10/ 12 1018.9F   0
DEVILS ISLAND    1400   57     130/  4/  4 1018.8F
SAXON HARBOR     1340   64     200/  1/  3 1018.3F
$$

LMZ867-665-643>646-241500-
LAKE MICHIGAN

STATION/POSITION TIME  TEMP    WIND        PRES    WAVE
                       AIR SEA DIR/SP/G            HT/PER
                 (UTC) (F)     (DEG/KT/KT) (MB)    (FT/S)
N MID LAKE BUOY  1350   42 38  200/ 10/ 12 1021.7F   1
NORTHPORT PIER   1340   50     140/  4/  6 1021.3S
KEWAUNEE LAKESHO 1342   54     170/  6/  9 1021.4F
SHEBOYGAN LAKESH 1400   63     180/ 12/ 12 1022.1F
PORT WASHINGTON  1330   60     170/  3/  7 1023.4F
ATWATER BUOY     1307   53 49  140/  4/  4 1022.8    0
MILWAUKEE LAKESH 1350   56     160/  2/  2   N/A
S MID LAKE BUOY  1350   51 40  160/  4/  4 1023.8S   0
KENOSHA   LAKESH 1400   55                 1022.4
$$

TC  - TEMPERATURE IN CELSIUS
VSB - VISIBILITY IN STATUTE MILES
WCI - WIND CHILL INDEX
HX  - HEAT INDEX




USA.gov is the U.S. government's official web portal to all federal, state and local government web resources and services.